Regional Weather Roundup
Issued by NWS Newport/Morehead, NC

Home | Current Version | Previous Version | Text Only | Print | Product List | Glossary On
Versions: 1 2 3 4 5 6 7 8 9 10 11 12 13 14 15 16 17 18 19 20 21 22 23 24 25 26 27 28 29 30 31 32 33 34 35 36 37 38 39 40 41 42 43 44 45 46 47 48 49 50
000
ASUS42 KMHX 200822
RWRMHX
WEATHER ROUNDUP FOR EASTERN NORTH CAROLINA
NATIONAL WEATHER SERVICE NEWPORT/MOREHEAD CITY NC
400 AM EDT SAT SEP 20 2014

NOTE: "FAIR" INDICATES FEW OR NO CLOUDS BELOW 12,000 FEET
WITH NO SIGNIFICANT WEATHER AND/OR OBSTRUCTIONS TO VISIBILITY

NCZ015>017-031-032-045>047-102-103-200900-
NORTH COAST

CITY           SKY/WX    TMP DP  RH WIND       PRES   REMARKS
EDENTON        CLEAR     59  58  96 N5        30.18F
ELIZABETH CITY CLEAR     66  62  87 NE9       30.18F
KITTY HAWK     MOSUNNY   72  64  77 NE8G16    30.15F
MANTEO         PTCLDY    71  64  79 NE14      30.16F

$$

NCZ045>047-081-094-103-104-200900-
CENTRAL COAST

CITY           SKY/WX    TMP DP  RH WIND       PRES   REMARKS
FRISCO         CLOUDY    71  67  87 NE12G21   30.13F
SWANQUARTER      N/A     68 N/A N/A N6G12     30.12S

$$

NCZ095-097-098-100-101-200900-
SOUTHERN COAST

CITY           SKY/WX    TMP DP  RH WIND       PRES   REMARKS
BEAUFORT       CLOUDY    70  65  84 N8        30.12F
CEDAR ISLAND     N/A     73 N/A N/A N17G29    30.18S
JACKSONVILLE   MOCLDY    65  60  84 N9        30.13F
NEWPORT        NOT AVBL
PINEY ISLAND   CLOUDY    74  65  73 NE17      30.13F
WILMINGTON     CLOUDY    66  61  84 NE10      30.12F


$$

NCZ011>013-027>030-043-044-078>080-089-090>093-098-200900-
COASTAL PLAIN

CITY           SKY/WX    TMP DP  RH WIND       PRES   REMARKS
AHOSKIE        CLEAR     57  55  93 CALM      30.21S
CLINTON        CLEAR     62  60  93 NE5       30.16F
ELIZABETHTOWN  PTCLDY    62  60  93 CALM      30.14F
GOLDSBORO      CLEAR     62  61  98 NE1       30.17S
GREENVILLE     CLEAR     61  59  94 N5        30.20R
HAVELOCK       CLOUDY    70  62  76 N10       30.15F
KENANSVILLE    PTCLDY    61  57  88 N5        30.16F
KINSTON        CLEAR     60  59  96 N5        30.17F
NEW BERN       MOCLDY    67  60  78 NE7       30.16F
RICHLANDS      MOCLDY    63  57  82 N8        30.15S
ROANOKE RAPIDS NOT AVBL
ROCKY MOUNT    CLEAR     59  57  93 NE3       30.20F
WASHINGTON     CLEAR     60  59  95 NE6       30.17F
WHITEVILLE     MOCLDY    64  60  84 N5        30.12F

$$

AMZ130-135-150-152-154-156-158-170-250-252-270-ANZ085-086-088-633-658-670-200900-
MARINE OBSERVATIONS

STATION/POSITION TIME  TEMP    WIND        PRES    WAVE   SWELL
                       AIR SEA DIR/SP/G            HT/PER HT/PER
                 (UTC) (F)     (DEG/KT/KT) (MB)    (FT/S) (FT/S)
CHESAPEAKE LIGHT 0800   72      80/ 21/ 23 1022.9
BUOY 44014       0800   72 74   40/ 19/ 23 1021.3    6/ 6
DUCK             0800   73 74   40/ 21/ 23 1021.0
2E DUCK          0800                        N/A     5/ 6
OREGON INLET     0800   73 74   30/ 12/ 19 1021.0
BUOY 44095       0800      75                N/A     6/ 6   2/11
20E OREGON INLET NOT AVBL
HATTERAS CG      0800   73 74   40/ 14/ 20 1020.5
DIAMOND BUOY     0800   77      70/ 16/ 19 1019.2    6/ 8   3/ 8
CAPE LOOKOUT     0800   73      20/ 17/ 20 1019.4
BEAUFORT LAB     0800   71 76   20/  8/ 11 1019.4
30 SE NEW RIVER  0800   76 83   30/ 23/ 27 1018.7    6/ 6   2/ 8
5 SE WRIGHTSVILL 0800   71 80   30/ 16/ 19   N/A
BUOY 41002       0739   76 82   80/ 19/ 23 1016.0    7/ 8   3/ 8
BUOY 41004       0800   75 82   80/ 19/ 25 1016.0    8/ 8

$$


USA.gov is the U.S. government's official web portal to all federal, state and local government web resources and services.